Regional Weather Roundup
Issued by NWS Green Bay, WI

Home | Current Version | Previous Version | Text Only | Print | Product List | Glossary On
Versions: 1 2 3 4 5 6 7 8 9 10 11 12 13 14 15 16 17 18 19 20 21 22 23 24 25 26 27 28 29 30 31 32 33 34 35 36 37 38 39 40 41 42 43 44 45 46 47 48 49 50
000
ASUS43 KGRB 011011
RWRGRB

NORTH-CENTRAL AND NORTHEAST WISCONSIN REGIONAL WEATHER ROUNDUP
NATIONAL WEATHER SERVICE GREEN BAY WI
500 AM CDT SAT OCT 01 2016

WIZ005-009-010>012-018-019-011100-
NORTH CENTRAL WISCONSIN

CITY           SKY/WX    TMP DP  RH WIND       PRES   REMARKS
IRONWOOD       PTCLDY    45  45 100 CALM      30.23S FOG
MANITOWISH WTR CLOUDY    52  52 100 NE3       30.21S
ARBOR VITAE    CLOUDY    55  51  89 NE3       30.20F
EAGLE RIVER    CLOUDY    51  50  95 CALM      30.20F
LAND O LAKES   CLOUDY    51  49  94 NE3       30.23S
RHINELANDER    PTCLDY    53  51  93 NE3       30.20S
PHILLIPS       CLOUDY    50  49  98 CALM      30.19S
ANTIGO         LGT RAIN  55  54  95 E8        30.18F
TOMAHAWK       CLOUDY    52  49  89 CALM      30.20R
MERRILL        CLOUDY    53  51  95 CALM      30.19S
$$

WIZ013-073-011100-
NORTHEAST WISCONSIN

CITY           SKY/WX    TMP DP  RH WIND       PRES   REMARKS
IRON MOUNTAIN  MOCLDY    56  50  80 CALM      30.19S
MARINETTE      CLOUDY    59  55  87 NE7       30.16S
OCONTO         CLOUDY    58  56  94 NE3       30.14F
$$

WIZ017-030-035>037-045-011100-
CENTRAL WISCONSIN

CITY           SKY/WX    TMP DP  RH WIND       PRES   REMARKS
MEDFORD        CLOUDY    51  51 100 E3        30.18S
WAUSAU         MOCLDY    54  52  93 VRB5      30.16S
MOSINEE        PTCLDY    54  54 100 NE8       30.17S
MARSHFIELD     MOCLDY    57  51  80 N8        30.16R
WISC RAPIDS    CLOUDY    59  55  87 E8        30.15S
STEVENS POINT  LGT RAIN  55  55  99 NE7       30.16S
WAUPACA        CLOUDY    59  58  97 NE3       30.14S
SHAWANO        CLOUDY    59  56  89 N7        30.16S
CLINTONVILLE   CLOUDY    57  55  94 N5        30.14S
WAUTOMA        CLOUDY    58  57  97 NE8       30.13S
$$

WIZ038-039-048-051-011100-
FOX VALLEY

CITY           SKY/WX    TMP DP  RH WIND       PRES   REMARKS
NWS GREEN BAY  CLOUDY    60  59  96 NE8       30.13F
APPLETON       CLOUDY    57  57 100 NE6       30.11F
OSHKOSH        CLOUDY    59  57  93 E9        30.11S
FOND DU LAC    CLOUDY    59  57  93 NE7       30.10F
$$

WIZ022-050-052-011100-
EAST CENTRAL WISCONSIN

CITY           SKY/WX    TMP DP  RH WIND       PRES   REMARKS
EPHRAIM        CLOUDY    60  56  87 E7        30.15S
WASHINGTON ISL LGT RAIN  60  56  86 E3        30.16S
STURGEON BAY   CLOUDY    61  55  81 NE6       30.15S
MANITOWOC      LGT RAIN  58  57  97 MISG      30.12F
SHEBOYGAN      CLOUDY    59  57  93 NE8       30.10F
$$

LMZ563-521-522-541>543-011100-
LAKESHORE

STATION/POSITION TIME  TEMP    WIND        PRES    VSBY  WAVE
                       AIR SEA DIR/SP/G                  HT/PER
                 (UTC) (F)     (DEG/KT/KT) (MB)    (MI)  (FT/S)
SHEBOYGAN LKSHOR 1000   60      50/ 11/ 12 1018.9F
KEWAUNEE LKSHORE 0900   61      80/ 10/ 15 1019.8F
NORTHPORT PIER   0900   63      80/ 12/ 16 1021.3S
N MID LAKE BUOY  0950   63 64   90/ 16/ 19 1020.7S         4/ 5
S GREEN BAY BUOY 1000   62 62   50/ 12/ 14 1020.1F
SISTER BAY LKSHO 0908   62     120/  8/ 10   N/A
CHAMBERS ISLAND  0900   62      30/ 11/ 15 1021.0S
MENOMINEE LKSHOR 0900   62      40/ 13/ 14 1020.3F
$$




USA.gov is the U.S. government's official web portal to all federal, state and local government web resources and services.